Change the Weather History Date:

Sunday, December 23, 2012

  Actual Average Record
Temperature  
Mean Temperature 29 °F -  
Max Temperature 32 °F 30 °F 46 °F (1996)
Min Temperature 26 °F 20 °F 3 °F (2000)
Degree Days  
Heating Degree Days 36    
Moisture  
Dew Point 20 °F    
Average Humidity 70    
Maximum Humidity 84    
Minimum Humidity 61    
Precipitation  
Precipitation 0.00 in - - ()
Sea Level Pressure  
Sea Level Pressure 29.94 in    
Wind  
Wind Speed 7 mph (WNW)    
Max Wind Speed 10 mph    
Max Gust Speed 22 mph    
Averages and records for this station are not official NWS values.
T = Trace of Precipitation, MM = Missing Value Source: NWS Daily Summary

Daily Weather History Graph

Daily Weather History Graph

Search for Another Location

Airport or City:

Trip Planner

Search our weather history database for the weather conditions in past years. The results will help you decide how hot, cold, wet, or windy it might be!

Date:

Astronomy

Dec. 23, 2012 Rise Set
Actual Time 8:03 AM EST 4:57 PM EST
Civil Twilight 7:30 AM EST 5:30 PM EST
Nautical Twilight 6:54 AM EST 6:06 PM EST
Astronomical Twilight 6:19 AM EST 6:42 PM EST
Moon 1:51 PM EST (12/23) 3:40 AM EST (12/23)
Length of Visible Light 9h 59m
Length of Day
8h 53m
Waxing Gibbous, 81% of the Moon is Illuminated
Dec 23
Waxing Gibbous
Dec 28
Full
Jan 4
Last Quarter
Jan 11
New
Jan 18
First Quarter

Hourly Weather History & Observations

Time (EST) Temp. Windchill Dew Point Humidity Pressure Visibility Wind Dir Wind Speed Gust Speed Precip Events Conditions
12:51 AM 30.0 °F 24.1 °F 23.0 °F 75% 29.90 in - Variable 5.8 mph - N/A   Unknown
1:51 AM 30.0 °F 22.4 °F 23.0 °F 75% 29.91 in - WSW 8.1 mph - N/A   Unknown
2:51 AM 28.0 °F 21.7 °F 23.0 °F 81% 29.89 in - Variable 5.8 mph - N/A   Unknown
3:51 AM 28.0 °F 20.0 °F 23.0 °F 81% 29.88 in - SW 8.1 mph - N/A   Unknown
4:51 AM 27.0 °F 18.7 °F 21.9 °F 81% 29.86 in - WSW 8.1 mph - N/A   Unknown
5:51 AM 27.0 °F 19.5 °F 21.9 °F 81% 29.86 in - Variable 6.9 mph - N/A   Unknown
6:51 AM 26.1 °F 20.5 °F 21.9 °F 84% 29.86 in - WSW 4.6 mph - N/A   Unknown
7:51 AM 30.0 °F 21.1 °F 21.9 °F 72% 29.87 in - West 10.4 mph 17.3 mph N/A   Unknown
8:51 AM 30.0 °F 23.2 °F 23.0 °F 75% 29.87 in - West 6.9 mph - N/A   Unknown
9:51 AM 32.0 °F 23.6 °F 25.0 °F 75% 29.89 in - NW 10.4 mph 20.7 mph N/A   Unknown
10:51 AM 30.9 °F 22.2 °F 21.9 °F 69% 29.91 in - NW 10.4 mph 21.9 mph N/A   Unknown
11:51 AM 30.9 °F 22.2 °F 21.0 °F 67% 29.91 in - NW 10.4 mph 19.6 mph N/A   Unknown
12:51 PM 30.9 °F 23.5 °F 21.0 °F 67% 29.90 in - NW 8.1 mph 19.6 mph N/A   Unknown
1:51 PM 30.0 °F 21.1 °F 21.0 °F 69% 29.93 in - NW 10.4 mph - N/A   Unknown
2:51 PM 30.0 °F 21.1 °F 19.9 °F 66% 29.93 in - WNW 10.4 mph 17.3 mph N/A   Unknown
3:51 PM 30.0 °F 22.4 °F 18.0 °F 61% 29.95 in - WNW 8.1 mph - N/A   Unknown
4:51 PM 30.0 °F 21.1 °F 19.0 °F 64% 29.95 in - NW 10.4 mph - N/A   Unknown
5:51 PM 28.9 °F 25.2 °F 17.1 °F 61% 29.99 in - Variable 3.5 mph - N/A   Unknown
6:51 PM 28.9 °F 21.1 °F 17.1 °F 61% 30.01 in - WNW 8.1 mph - N/A   Unknown
7:51 PM 28.0 °F 20.0 °F 17.1 °F 63% 30.03 in - WNW 8.1 mph - N/A   Unknown
8:51 PM 28.0 °F 20.0 °F 17.1 °F 63% 30.04 in - WNW 8.1 mph 16.1 mph N/A   Unknown
9:51 PM 28.0 °F 21.7 °F 17.1 °F 63% 30.04 in - WNW 5.8 mph - N/A   Unknown
10:51 PM 27.0 °F 23.0 °F 16.0 °F 63% 30.05 in - West 3.5 mph - N/A   Unknown
11:51 PM 28.0 °F 21.7 °F 18.0 °F 66% 30.03 in - NW 5.8 mph - N/A   Unknown